Location: Dodgeville, WI 53533, USA
(43.0344°N, 90.0900°W)
Time: 02:20:53
(UTC-06:00)

ISS - Visible Passes

Search period start: 19 February 2019 00:00
Search period end: 01 March 2019 00:00
Orbit: 403 x 411 km, 51.6° (Epoch: 19 February)

Date Brightness Start Highest point End Pass type
(mag) Time Alt. Az. Time Alt. Az. Time Alt. Az.
21 Feb -0.5 05:50:48 10° SSE 05:51:43 11° SE 05:52:38 10° ESE visible
23 Feb -1.7 05:42:10 10° SSW 05:44:55 26° SE 05:47:42 10° ENE visible
24 Feb -1.0 04:51:45 10° SSE 04:53:36 14° SE 04:55:27 10° E visible
25 Feb -3.5 05:35:35 14° SW 05:38:14 62° SE 05:41:29 10° ENE visible
26 Feb -2.5 04:46:33 33° SSE 04:46:47 33° SE 04:49:46 10° ENE visible
27 Feb -0.4 03:57:21 12° E 03:57:21 12° E 03:57:45 10° E visible
27 Feb -3.7 05:30:04 26° W 05:31:38 58° NNW 05:34:53 10° NE visible
28 Feb -3.1 04:40:45 52° ENE 04:40:45 52° ENE 04:43:21 10° ENE visible
